• Em Portugal
  • Lista de países
  • Para 7 dias
  • Temperatura da água
  • Mapas de satélite
  • Mapa do tempo
  • Widgets de tempo
  • user-avatar
    Iniciar Sessão

    Previsão horária em Kurdzhali

    Hoje, 25 Setembro, Terça-feira

    Tempo Temperatura Precipitação Vento Pressão Humidade
    00:00 +16°C° 0.1 mm 5 m/s 728 mmHg 58%
    01:00 +15°C° 0.1 mm 5 m/s 729 mmHg 58%
    02:00 +14°C° 0.1 mm 5 m/s 729 mmHg 57%
    03:00 +14°C° 0.1 mm 5 m/s 730 mmHg 57%
    04:00 +13°C° 0.1 mm 5 m/s 731 mmHg 58%
    05:00 +13°C° 0.1 mm 6 m/s 731 mmHg 58%
    06:00 +12°C° 0.1 mm 5 m/s 732 mmHg 56%
    07:00 +12°C° 0.1 mm 5 m/s 732 mmHg 54%
    08:00 +12°C° 0.1 mm 5 m/s 733 mmHg 52%
    09:00 +13°C° 0 mm 5 m/s 733 mmHg 46%
    10:00 +14°C° 0 mm 5 m/s 733 mmHg 39%
    11:00 +15°C° 0 mm 5 m/s 734 mmHg 32%
    12:00 +17°C° 0 mm 5 m/s 734 mmHg 29%
    13:00 +19°C° 0 mm 5 m/s 734 mmHg 26%
    14:00 +20°C° 0 mm 6 m/s 734 mmHg 22%
    15:00 +19°C° 0 mm 6 m/s 733 mmHg 23%
    16:00 +19°C° 0 mm 6 m/s 733 mmHg 23%
    17:00 +17°C° 0 mm 6 m/s 733 mmHg 23%
    18:00 +15°C° 0 mm 5 m/s 734 mmHg 26%
    19:00 +14°C° 0 mm 4 m/s 734 mmHg 28%
    20:00 +12°C° 0 mm 4 m/s 734 mmHg 31%
    21:00 +11°C° 0 mm 4 m/s 735 mmHg 34%
    22:00 +10°C° 0 mm 4 m/s 735 mmHg 37%
    23:00 +10°C° 0 mm 4 m/s 736 mmHg 40%

    Amanhã, 26 Setembro, Quarta-feira

    Tempo Temperatura Precipitação Vento Pressão Humidade
    00:00 +8°C° 0 mm 4 m/s 736 mmHg 42%
    01:00 +8°C° 0 mm 4 m/s 736 mmHg 44%
    02:00 +8°C° 0 mm 4 m/s 736 mmHg 47%
    03:00 +7°C° 0 mm 4 m/s 736 mmHg 47%
    04:00 +7°C° 0 mm 4 m/s 736 mmHg 47%
    05:00 +6°C° 0 mm 4 m/s 736 mmHg 48%
    06:00 +7°C° 0 mm 5 m/s 737 mmHg 46%
    07:00 +8°C° 0 mm 5 m/s 737 mmHg 45%
    08:00 +9°C° 0 mm 6 m/s 737 mmHg 43%
    09:00 +10°C° 0 mm 7 m/s 738 mmHg 39%
    10:00 +11°C° 0 mm 7 m/s 738 mmHg 36%
    11:00 +13°C° 0 mm 8 m/s 738 mmHg 32%
    12:00 +13°C° 0 mm 8 m/s 738 mmHg 30%
    13:00 +15°C° 0 mm 9 m/s 737 mmHg 29%
    14:00 +15°C° 0 mm 9 m/s 737 mmHg 27%
    15:00 +15°C° 0 mm 9 m/s 737 mmHg 29%
    16:00 +13°C° 0 mm 8 m/s 736 mmHg 30%
    17:00 +13°C° 0 mm 8 m/s 736 mmHg 31%
    18:00 +11°C° 0 mm 8 m/s 736 mmHg 35%
    19:00 +10°C° 0 mm 7 m/s 737 mmHg 38%
    20:00 +9°C° 0 mm 6 m/s 737 mmHg 41%
    21:00 +8°C° 0 mm 6 m/s 737 mmHg 43%
    22:00 +8°C° 0 mm 6 m/s 737 mmHg 44%
    23:00 +7°C° 0 mm 6 m/s 737 mmHg 46%

    Depois de amanhã, 27 Setembro, Quinta-feira

    Tempo Temperatura Precipitação Vento Pressão Humidade
    00:00 +7°C° 0 mm 6 m/s 737 mmHg 47%
    01:00 +5°C° 0 mm 6 m/s 737 mmHg 48%
    02:00 +5°C° 0 mm 6 m/s 737 mmHg 50%
    03:00 +4°C° 0 mm 6 m/s 736 mmHg 51%
    04:00 +4°C° 0 mm 6 m/s 736 mmHg 52%
    05:00 +4°C° 0 mm 6 m/s 736 mmHg 53%
    06:00 +5°C° 0 mm 7 m/s 736 mmHg 49%
    07:00 +5°C° 0 mm 8 m/s 736 mmHg 45%
    08:00 +6°C° 0 mm 8 m/s 736 mmHg 42%
    09:00 +9°C° 0 mm 8 m/s 736 mmHg 37%
    10:00 +11°C° 0 mm 9 m/s 735 mmHg 33%
    11:00 +12°C° 0 mm 9 m/s 735 mmHg 29%
    12:00 +13°C° 0 mm 9 m/s 735 mmHg 28%
    13:00 +15°C° 0 mm 9 m/s 734 mmHg 28%
    14:00 +16°C° 0 mm 9 m/s 734 mmHg 28%
    15:00 +16°C° 0 mm 9 m/s 733 mmHg 30%
    16:00 +16°C° 0 mm 9 m/s 733 mmHg 31%
    17:00 +15°C° 0 mm 8 m/s 732 mmHg 33%
    18:00 +13°C° 0 mm 8 m/s 733 mmHg 36%
    19:00 +12°C° 0 mm 7 m/s 733 mmHg 39%
    20:00 +10°C° 0 mm 6 m/s 733 mmHg 43%
    21:00 +10°C° 0 mm 6 m/s 733 mmHg 43%
    22:00 +10°C° 0 mm 6 m/s 733 mmHg 43%
    23:00 +10°C° 0 mm 6 m/s 732 mmHg 43%

    28 Setembro, Sexta-feira

    Tempo Temperatura Precipitação Vento Pressão Humidade
    00:00 +10°C° 0.1 mm 6 m/s 732 mmHg 44%
    01:00 +10°C° 0.1 mm 6 m/s 732 mmHg 45%
    02:00 +9°C° 0.1 mm 6 m/s 731 mmHg 47%
    03:00 +9°C° 0.1 mm 5 m/s 731 mmHg 47%
    04:00 +9°C° 0.1 mm 5 m/s 731 mmHg 47%
    05:00 +9°C° 0.1 mm 5 m/s 731 mmHg 47%
    06:00 +9°C° 0.1 mm 5 m/s 731 mmHg 47%
    07:00 +9°C° 0.1 mm 5 m/s 731 mmHg 48%
    08:00 +10°C° 0.1 mm 5 m/s 731 mmHg 48%
    09:00 +12°C° 0 mm 5 m/s 731 mmHg 49%
    10:00 +13°C° 0 mm 4 m/s 730 mmHg 50%
    11:00 +14°C° 0 mm 4 m/s 730 mmHg 50%
    12:00 +15°C° 0 mm 4 m/s 730 mmHg 49%
    13:00 +17°C° 0 mm 5 m/s 730 mmHg 48%
    14:00 +19°C° 0 mm 5 m/s 729 mmHg 47%
    15:00 +19°C° 0 mm 4 m/s 729 mmHg 48%
    16:00 +19°C° 0 mm 4 m/s 729 mmHg 49%
    17:00 +19°C° 0 mm 4 m/s 728 mmHg 50%
    18:00 +18°C° 0.3 mm 3 m/s 728 mmHg 55%
    19:00 +17°C° 0.3 mm 3 m/s 728 mmHg 60%
    20:00 +16°C° 0.3 mm 2 m/s 728 mmHg 66%
    21:00 +15°C° 1.5 mm 2 m/s 728 mmHg 70%
    22:00 +14°C° 1.5 mm 2 m/s 728 mmHg 75%
    23:00 +14°C° 1.5 mm 2 m/s 728 mmHg 79%

    29 Setembro, Sábado

    Tempo Temperatura Precipitação Vento Pressão Humidade
    00:00 +14°C° 0.9 mm 2 m/s 728 mmHg 80%
    01:00 +14°C° 0.9 mm 2 m/s 727 mmHg 82%
    02:00 +14°C° 0.9 mm 2 m/s 727 mmHg 83%
    03:00 +13°C° 0.3 mm 2 m/s 727 mmHg 84%
    04:00 +13°C° 0.3 mm 2 m/s 727 mmHg 84%
    05:00 +13°C° 0.3 mm 2 m/s 726 mmHg 84%
    06:00 +13°C° 0 mm 2 m/s 727 mmHg 83%
    07:00 +14°C° 0 mm 2 m/s 727 mmHg 81%
    08:00 +14°C° 0 mm 2 m/s 727 mmHg 79%
    09:00 +16°C° 0 mm 2 m/s 727 mmHg 73%
    10:00 +17°C° 0 mm 2 m/s 727 mmHg 68%
    11:00 +19°C° 0 mm 2 m/s 727 mmHg 62%
    12:00 +20°C° 0 mm 2 m/s 727 mmHg 58%
    13:00 +20°C° 0 mm 2 m/s 727 mmHg 54%
    14:00 +21°C° 0 mm 2 m/s 727 mmHg 50%
    15:00 +21°C° 0.1 mm 2 m/s 727 mmHg 51%
    16:00 +21°C° 0.1 mm 2 m/s 727 mmHg 51%
    17:00 +21°C° 0.1 mm 2 m/s 727 mmHg 52%
    18:00 +19°C° 0.1 mm 2 m/s 727 mmHg 57%
    19:00 +18°C° 0.1 mm 2 m/s 727 mmHg 63%
    20:00 +16°C° 0.1 mm 2 m/s 727 mmHg 68%
    21:00 +16°C° 0.2 mm 2 m/s 728 mmHg 71%
    22:00 +15°C° 0.2 mm 2 m/s 728 mmHg 74%
    23:00 +15°C° 0.2 mm 2 m/s 728 mmHg 78%

    30 Setembro, Domingo

    Tempo Temperatura Precipitação Vento Pressão Humidade
    00:00 +14°C° 0.1 mm 2 m/s 728 mmHg 79%
    01:00 +14°C° 0.1 mm 2 m/s 728 mmHg 80%
    02:00 +14°C° 0.1 mm 2 m/s 728 mmHg 82%
    03:00 +13°C° 0 mm 2 m/s 729 mmHg 82%
    04:00 +13°C° 0 mm 2 m/s 729 mmHg 82%
    05:00 +13°C° 0 mm 2 m/s 729 mmHg 82%
    06:00 +14°C° 0 mm 2 m/s 729 mmHg 76%
    07:00 +15°C° 0 mm 2 m/s 730 mmHg 70%
    08:00 +16°C° 0 mm 3 m/s 730 mmHg 65%
    09:00 +18°C° 0 mm 3 m/s 730 mmHg 58%
    10:00 +19°C° 0 mm 3 m/s 731 mmHg 51%
    11:00 +21°C° 0 mm 3 m/s 731 mmHg 44%
    12:00 +22°C° 0 mm 3 m/s 731 mmHg 42%
    13:00 +22°C° 0 mm 3 m/s 730 mmHg 40%
    14:00 +24°C° 0 mm 3 m/s 730 mmHg 37%
    15:00 +22°C° 0 mm 3 m/s 730 mmHg 39%
    16:00 +22°C° 0 mm 3 m/s 730 mmHg 40%
    17:00 +22°C° 0 mm 3 m/s 730 mmHg 42%
    18:00 +20°C° 0 mm 3 m/s 730 mmHg 48%
    19:00 +18°C° 0 mm 3 m/s 730 mmHg 54%
    20:00 +17°C° 0 mm 3 m/s 730 mmHg 61%
    21:00 +16°C° 0 mm 2 m/s 730 mmHg 67%
    22:00 +15°C° 0 mm 2 m/s 730 mmHg 73%
    23:00 +15°C° 0 mm 2 m/s 730 mmHg 79%
    Mostrar mais